Regional Weather Roundup
Issued by NWS Green Bay, WI

Home | Current Version | Previous Version | Text Only | Print | Product List | Glossary On
Versions: 1 2 3 4 5 6 7 8 9 10 11 12 13 14 15 16 17 18 19 20 21 22 23 24 25 26 27 28 29 30 31 32 33 34 35 36 37 38 39 40 41 42 43 44 45 46 47 48 49 50
655
ASUS43 KGRB 301300
RWRGRB

NORTH-CENTRAL AND NORTHEAST WISCONSIN REGIONAL WEATHER ROUNDUP
NATIONAL WEATHER SERVICE GREEN BAY WI
800 AM CDT SAT APR 30 2016

WIZ005-009-010>012-018-019-301400-
NORTH CENTRAL WISCONSIN

CITY           SKY/WX    TMP DP  RH WIND       PRES   REMARKS
IRONWOOD         N/A     37  34  87 E6        30.21S
MANITOWISH WTR NOT AVBL
ARBOR VITAE    NOT AVBL
EAGLE RIVER    NOT AVBL
LAND O LAKES   NOT AVBL
RHINELANDER    CLOUDY    41  29  62 E7        30.19R
PHILLIPS       CLOUDY    39  31  73 NE7       30.17S
ANTIGO         NOT AVBL
TOMAHAWK       NOT AVBL
MERRILL        NOT AVBL
$$

WIZ013-073-301400-
NORTHEAST WISCONSIN

CITY           SKY/WX    TMP DP  RH WIND       PRES   REMARKS
IRON MOUNTAIN  CLOUDY    43  30  60 NE7       30.19R
MARINETTE      MOSUNNY   45  34  65 E14       30.20R
$$

WIZ017-030-035>037-045-301400-
CENTRAL WISCONSIN

CITY           SKY/WX    TMP DP  RH WIND       PRES   REMARKS
MEDFORD        NOT AVBL
WAUSAU         CLOUDY    44  31  60 E10       30.12F
MOSINEE        SUNNY     41  32  70 NE10      30.14F
MARSHFIELD     CLOUDY    42  32  67 NE10      30.10F
WISC RAPIDS    CLOUDY    42  29  59 E12       30.12F
STEVENS POINT  NOT AVBL
WAUPACA        CLOUDY    43  34  71 NE7       30.14S
SHAWANO        PTSUNNY   44  34  68 NE9       30.17S
CLINTONVILLE   NOT AVBL
WAUTOMA        CLOUDY    41  34  76 NE9       30.12S
$$

WIZ038-039-048-051-301400-
FOX VALLEY

CITY           SKY/WX    TMP DP  RH WIND       PRES   REMARKS
NWS GREEN BAY  PTSUNNY   45  38  76 NE15      30.15S
APPLETON       PTSUNNY   41  36  81 NE9       30.12R
OSHKOSH        PTSUNNY   44  34  67 NE9       30.12S
FOND DU LAC    PTSUNNY   43  33  68 E9        30.11F
$$

WIZ022-050-052-301400-
EAST CENTRAL WISCONSIN

CITY           SKY/WX    TMP DP  RH WIND       PRES   REMARKS
EPHRAIM        NOT AVBL
STURGEON BAY   CLOUDY    45  34  65 E8        30.21R
MANITOWOC      NOT AVBL
SHEBOYGAN      CLOUDY    43  38  82 NE8       30.13S
$$

LMZ563-521-522-541>543-301400-
LAKESHORE

STATION/POSITION TIME  TEMP    WIND        PRES    VSBY  WAVE
                       AIR SEA DIR/SP/G                  HT/PER
                 (UTC) (F)     (DEG/KT/KT) (MB)    (MI)  (FT/S)
SHEBOYGAN LKSHOR 1200   41      10/  6/  7 1021.3R
KEWAUNEE LKSHORE 1200   41      40/  8/ 11 1020.4R
NORTHPORT PIER   1202   41     340/  5/  7 1022.0R
N MID LAKE BUOY  1150   40 38   20/ 12/ 14 1022.2R         1/ 3
CHAMBERS ISLAND  1200   41      20/ 10/ 13 1022.0S
MENOMINEE LKSHOR 1200   41      30/  9/ 11 1020.7R
$$




USA.gov is the U.S. government's official web portal to all federal, state and local government web resources and services.